{"data":{"norad_id":53820,"intl_designator":"2022-114C","name":"STARLINK-4758","alt_names":[],"object_type":"PAYLOAD","status":"ACTIVE","operator":null,"country":"US","launch_date":"2022-09-19","launch_site_code":"AFETR","launch_vehicle":null,"mission":null,"orbit_class":"UNKNOWN","rcs_meters":null,"size_class":null,"mass_kg":null,"dimensions":null,"purposes":["comms"],"wikipedia_slug":null,"has_3d_model":false,"image_url":null,"decayed_at":null,"tle_current":{"epoch":"2026-05-24T21:37:59.783232Z","epoch_age_seconds":80800,"freshness":"FRESH","line1":"1 53820U 22114C   26144.90138638 -.00000271  00000+0  10591-5 0  9994","line2":"2 53820  53.2137 322.2103 0001185  79.6552 280.4574 15.08831905204335","mean_motion":15.08831905,"eccentricity":0.0001185,"inclination_deg":53.2137,"raan_deg":322.2103,"arg_perigee_deg":79.6552,"mean_anomaly_deg":280.4574,"bstar":1.0591e-6,"rev_number":20433,"period_min":95.438066707636,"perigee_km":538.9483604931,"apogee_km":540.58790400945,"semimajor_km":6917.9051322513,"source":"CELESTRAK","updated_at":"2026-05-25T13:38:17.569076Z"}}}